Location: ActonStarParty
(42.4766°N, 71.4538°W)
Time: 20:39:00
(UTC-04:00)

Cosmos 1300 - Visible Passes

Search period start: 19 April 2014 00:00
Search period end: 29 April 2014 00:00
Orbit: 533 x 535 km, 82.5° (Epoch: 19 April)

Date Brightness Start Highest point End Pass type
(mag) Time Alt. Az. Time Alt. Az. Time Alt. Az.
19 Apr 3.3 20:10:26 10° SSW 20:14:20 65° W 20:18:15 10° N visible
20 Apr 3.2 20:01:07 10° SSW 20:05:01 68° W 20:08:57 10° N visible
26 Apr 6.1 05:12:09 10° NNE 05:14:45 17° ENE 05:17:21 10° ESE visible
27 Apr 6.1 05:02:49 10° NNE 05:05:20 16° ENE 05:07:50 10° ESE visible
28 Apr 6.1 04:53:29 10° NNE 04:55:54 16° ENE 04:58:18 10° ESE visible
